COSMOS 2251 DEB, 40793

Orbit data source: Space-Track

COSMOS 2251 DEB, 40793 is space debris in LEO originally from a launch on Wed, 16 Jun 1993 UTC launched from the Plesetsk Missile And Space Complex (PKMTR). The debris from Iridium 33, an American commercial communications satellite, has been tracked extensively since its accidental collision with the defunct Russian satellite Cosmos 2251 in 2009. This event, occurring at high speed in low Earth orbit (LEO), generated thousands of pieces of space debris, significantly increasing the risk of further collisions. The Iridium 33 debris cloud has impacted space traffic management and orbital debris mitigation strategies, making it a subject of ongoing study in space situational awareness.

Loading next visibility...
Identifier
40793, 1993-036BVW
Orbit
LEO
Country
Flag of CISCIS
Related business
Manufacturer
Unknown
Mission
Spacecraft
Bus & Motor
Unknown
Mass
Unknown
Launch date (UTC)
1993-06-16 (32 years ago)
Launch vehicle
Unknown
Launch site
Plesetsk Missile And Space Complex (PKMTR)
Object type
Payload
Rocket body
Debris
Shape & HBR
Unknown
Radar Cross Section
Small (<0.1 m²)

Expand to show TLE details & history
Last TLE update: 1 week ago

TLE from 1 week ago
0 COSMOS 2251 DEB
1 40793U 93036BVW 25249.49436522  .00002038  00000-0  10345-2 0  9999
2 40793  73.9808 335.6459 0215253 153.3387 207.9015 14.05290360668793
Epoch: 2025-09-06T11:51Z
TLE epoch observation values (Epoch: 2025-09-06T11:51:53.155Z)
Latitude
0.00005°
Longitude
171.84705°
Altitude
1,016.832 km
Speed
7.273 km/s
True Right ascension
22h 22m 35s
True Declination
0° 00' 00"
Sunlit
Object was in full shadow at epoch
Visualization orbit readout
Latitude
Unknown
Longitude
Unknown
Altitude
Unknown
Speed
Unknown
Apparent Right ascension
Unknown
Apparent Declination
Unknown
Sunlit
N/A
Visualization observer readout
Local Sidereal Time
01:58:57
Azimuth
Unknown
Elevation
Unknown
Doppler factor
Unknown
Orbital elements
Apogee altitude
1,029.281 km
Perigee altitude
717.107 km
Semi-major axis
7,251.331 km
Eccentricity
0.02153
Inclination
73.9808°
RAAN
335.6459°
Arg. of periapsis
153.3387°
True anomaly
206.77415°
Mean anomaly
207.9015°
Eccentric anomaly
207.33517°
Mean motion
3.51493 °/min
Orbital period
102.42 mins
BSTAR
0.0010345
Loading maneuver chart data...
Computing Atmospheric mass density...

Documentation

Showing up to 5 results
|